Location: Cluj-Napoca
(46.7712°N, 23.6236°E)
Time: 06:09:11
(UTC+03:00)

ISS - Pass Details

Date: 04 April 2020
Orbit: 417 x 423 km, 51.6° (Epoch: 29 March)

Event Time Altitude Azimuth Distance (km) Brightness Sun altitude
Rises 21:14:27 0° 291° (WNW) 2,362 2.1 -13.1°
Reaches altitude 10° 21:16:43 10° 280° (W) 1,495 0.3 -13.5°
Maximum altitude 21:19:38 28° 219° (SW) 820 -2.2 -13.9°
Enters shadow 21:21:40 16° 168° (SSE) 1,192 -1.8 -14.2°
